FW1458 Weather Reports


Display with metric or nautical units.
time (UTC)temp
F
wind
direction
speed
MPH
gust
MPH
rain 1hr
in
rain 24hr
in
rain mn
in
humidity
%
barometer
mb
20260901153004 90 239 3.0 6.0 0.00 0.00 0.00 56 1016.0
20260901151604 89 169 2.0 6.0 0.00 0.00 0.00 61 1016.2
20260901144553 86 164 0.0 5.0 0.00 0.00 0.00 64 1016.3
20260901143054 85 108 1.0 4.0 0.00 0.00 0.00 65 1016.3
20260901141550 84 164 2.0 5.0 0.00 0.00 0.00 66 1016.3
20260901140048 82 160 1.0 5.0 0.00 0.00 0.00 68 1016.4
20260901134601 81 174 1.0 4.0 0.00 0.00 0.00 69 1016.3
20260901133046 80 168 0.0 2.0 0.00 0.00 0.00 71 1016.4
20260901131545 79 139 0.0 3.0 0.00 0.00 0.00 72 1016.2
20260901130043 78 169 0.0 2.0 0.00 0.00 0.00 73 1016.0
20260901124552 77 146 0.0 2.0 0.00 0.00 0.00 74 1015.9
20260901123040 76 143 0.0 2.0 0.00 0.00 0.00 74 1015.6
20260901121539 76 125 0.0 2.0 0.00 0.00 0.00 73 1015.5
20260901120054 77 126 0.0 1.0 0.00 0.00 0.00 72 1015.4
20260901114540 77 126 0.0 0.0 0.00 0.00 0.00 70 1015.2
20260901113103 77 126 0.0 0.0 0.00 0.00 0.00 70 1015.2
20260901111531 78 126 0.0 1.0 0.00 0.00 0.00 69 1015.2
20260901110027 79 126 0.0 1.0 0.00 0.00 0.00 67 1015.0
20260901104525 80 126 0.0 0.0 0.00 0.00 0.00 66 1015.0
20260901103021 81 126 0.0 2.0 0.00 0.00 0.00 64 1014.9
20260901101522 81 135 0.0 2.0 0.00 0.00 0.00 63 1014.8
20260901100016 81 141 0.0 3.0 0.00 0.00 0.00 62 1014.8
20260901094515 81 157 1.0 3.0 0.00 0.00 0.00 61 1014.7
20260901093020 82 157 0.0 2.0 0.00 0.00 0.00 60 1014.7
20260901091515 82 163 0.0 3.0 0.00 0.00 0.00 60 1014.6
20260901090015 82 160 0.0 2.0 0.00 0.00 0.00 60 1014.6
20260901084525 82 153 0.0 2.0 0.00 0.00 0.00 59 1014.5
20260901083012 82 180 0.0 1.0 0.00 0.00 0.00 60 1014.4
20260901081509 83 180 0.0 1.0 0.00 0.00 0.00 59 1014.2
20260901080010 83 180 0.0 1.0 0.00 0.00 0.00 57 1014.3
20260901074509 84 180 0.0 2.0 0.00 0.00 0.00 57 1014.3
20260901073008 84 180 1.0 3.0 0.00 0.00 0.00 56 1014.1
20260901071507 84 165 1.0 3.0 0.00 0.00 0.00 56 1014.1
20260901070006 84 163 1.0 5.0 0.00 0.00 0.00 55 1014.1
20260901064506 85 162 1.0 4.0 0.00 0.00 0.00 55 1014.1
20260901063012 85 163 0.0 2.0 0.00 0.00 0.00 55 1014.1
20260901061506 85 121 1.0 4.0 0.00 0.00 0.00 55 1014.1
20260901060007 85 180 0.0 2.0 0.00 0.00 0.00 54 1014.1
20260901054504 85 144 2.0 4.0 0.00 0.00 0.00 54 1014.1
20260901053118 85 142 2.0 7.0 0.00 0.00 0.00 55 1013.9
20260901051559 84 137 1.0 5.0 0.00 0.00 0.00 57 1013.7
20260901050051 82 130 0.0 1.0 0.00 0.00 0.00 59 1013.5
20260901044615 82 130 0.0 2.0 0.00 0.00 0.00 59 1013.6
20260901043051 83 148 0.0 1.0 0.00 0.00 0.00 59 1013.4
20260901041550 83 148 0.0 1.0 0.00 0.00 0.00 59 1013.3
20260901040050 84 150 0.0 1.0 0.00 0.00 0.00 58 1013.4
20260901034556 84 150 0.0 1.0 0.00 0.00 0.00 55 1013.2
20260901033049 84 150 0.0 2.0 0.00 0.00 0.00 55 1013.2
20260901031553 85 136 0.0 0.0 0.00 0.00 0.00 55 1013.2
20260901030047 86 136 0.0 0.0 0.00 0.00 0.00 54 1013.1
20260901024547 87 136 0.0 0.0 0.00 0.00 0.00 52 1012.9
20260901023047 88 136 0.0 1.0 0.00 0.00 0.00 51 1012.9
20260901021607 88 142 0.0 1.0 0.00 0.00 0.00 49 1012.6
20260901020101 90 142 0.0 1.0 0.00 0.00 0.00 47 1012.6
20260901014549 91 158 0.0 2.0 0.00 0.00 0.00 45 1012.5
20260901013047 92 151 0.0 2.0 0.00 0.00 0.00 44 1012.4
20260901011545 93 151 0.0 2.0 0.00 0.00 0.00 42 1012.2
20260901010045 94 161 1.0 2.0 0.00 0.00 0.00 41 1012.1
20260901004545 96 184 1.0 3.0 0.00 0.00 0.00 39 1012.0
20260901003050 97 158 1.0 6.0 0.00 0.00 0.00 38 1012.1
20260901001558 98 188 4.0 8.0 0.00 0.00 0.00 36 1011.9
20260901000048 98 172 4.0 8.0 0.00 0.00 0.00 35 1012.0
20260831234556 99 180 3.0 10.0 0.00 0.00 0.00 34 1011.9
20260831233048 101 175 6.0 11.0 0.00 0.00 0.00 33 1012.0
20260831231543 101 201 3.0 9.0 0.00 0.00 0.00 32 1012.0
20260831230041 102 259 4.0 13.0 0.00 0.00 0.00 31 1011.9
20260831224539 102 203 3.0 9.0 0.00 0.00 0.00 32 1012.0
20260831223039 101 237 3.0 11.0 0.00 0.00 0.00 32 1012.0
20260831221541 101 159 5.0 12.0 0.00 0.00 0.00 31 1012.0
20260831220039 102 186 5.0 13.0 0.00 0.00 0.00 31 1012.2
20260831214535 103 205 3.0 9.0 0.00 0.00 0.00 31 1012.2
20260831213038 103 162 4.0 10.0 0.00 0.00 0.00 31 1012.4
20260831211535 102 199 6.0 15.0 0.00 0.00 0.00 32 1012.5
20260831210036 103 194 6.0 16.0 0.00 0.00 0.00 31 1012.6
20260831204534 101 229 5.0 13.0 0.00 0.00 0.00 33 1012.9
20260831203035 103 202 3.0 14.0 0.00 0.00 0.00 32 1013.1
20260831201539 103 159 5.0 15.0 0.00 0.00 0.00 32 1013.1
20260831200038 103 205 4.0 12.0 0.00 0.00 0.00 32 1013.2
20260831194552 102 263 3.0 12.0 0.00 0.00 0.00 33 1013.4
20260831193029 102 174 7.0 12.0 0.00 0.00 0.00 33 1013.4
20260831191533 101 175 5.0 11.0 0.00 0.00 0.00 34 1013.6
20260831190026 101 173 4.0 9.0 0.00 0.00 0.00 35 1013.9
20260831184529 101 250 6.0 12.0 0.00 0.00 0.00 31 1014.1
20260831183022 101 178 3.0 14.0 0.00 0.00 0.00 34 1014.2
20260831181524 101 200 6.0 11.0 0.00 0.00 0.00 34 1014.4
20260831180018 100 200 4.0 15.0 0.00 0.00 0.00 38 1014.5
20260831174517 100 173 4.0 10.0 0.00 0.00 0.00 39 1014.6
20260831173011 98 257 4.0 12.0 0.00 0.00 0.00 41 1014.9
20260831171508 98 180 4.0 10.0 0.00 0.00 0.00 42 1015.3
20260831170005 97 215 2.0 9.0 0.00 0.00 0.00 44 1015.4
20260831164504 96 211 4.0 9.0 0.00 0.00 0.00 45 1015.5
20260831163100 96 232 3.0 11.0 0.00 0.00 0.00 46 1015.6
20260831163001 95 234 3.0 11.0 0.00 0.00 0.00 46 1015.6
20260831161556 95 176 4.0 10.0 0.00 0.00 0.00 47 1015.6
20260831160055 94 279 2.0 8.0 0.00 0.00 0.00 48 1015.6
20260831154550 93 136 1.0 8.0 0.00 0.00 0.00 49 1015.7